GFSNGP_sfc_rhum_105.txt.gz
RH
89 80 78 94 96 92 80 77 100 99 98 93 93 94 93 88 88 87 88 88 92 95 95 95 92 88 89 88 90 88 90 90 94 93 96 96 96 92 93 93 92 91 91 93
98 90 81 98 80 57 80 94 94 93 99 93 91 88 92 92 86 86 86 89 88 92 94 94 95 95 90 94 89 88 90 92 91 91 91 95 95 95 94 94 92 91 90 89
97 54 61 95 80 73 76 71 72 95 98 89 93 93 95 95 92 88 78 83 96 98 99 97 97 96 97 95 93 88 90 92 92 91 92 94 92 92 94 96 94 95 94 93
72 66 94 89 68 74 84 80 69 74 87 91 93 95 95 98 98 98 93 76 92 93 97 99 98 96 94 96 93 95 94 91 96 92 92 91 93 94 95 94 94 94 95 94
85 92 86 67 66 78 86 96 78 78 79 87 91 81 97 96 98 99 97 74 74 77 87 95 96 100 93 93 98 95 98 99 97 97 96 94 95 96 94 94 94 94 94 95
82 84 96 79 73 62 61 95 92 78 84 82 82 93 97 97 98 100 96 61 66 68 68 73 81 86 91 94 93 96 97 98 99 99 100 98 100 98 96 95 96 92 94 95
89 94 82 86 72 61 80 98 98 90 85 86 93 95 96 95 98 100 61 54 61 65 69 66 66 74 89 91 96 97 96 96 98 98 98 100 100 100 100 98 96 96 96 96
90 89 91 80 70 84 99 99 98 98 94 91 90 93 92 89 90 87 57 51 57 66 70 67 66 77 80 91 84 77 87 93 94 94 96 97 97 98 99 96 95 96 96 96
92 94 97 82 95 97 96 99 99 98 81 80 87 90 95 93 90 85 62 61 59 66 72 71 71 76 88 86 73 73 77 85 89 89 91 92 95 96 96 96 95 95 93 95
98 96 92 89 87 89 96 96 79 69 76 80 87 90 91 86 78 70 64 66 65 69 75 78 76 82 89 87 69 76 77 77 76 80 84 84 83 86 90 93 93 92 93 95
96 90 85 87 93 90 73 62 60 53 55 56 58 59 57 58 61 63 64 66 70 75 76 77 78 86 86 87 82 78 86 89 79 77 79 84 88 88 88 94 90 93 96 96
98 100 92 94 95 80 76 71 59 58 61 63 60 62 68 73 70 70 74 73 76 81 84 80 80 86 89 87 84 86 89 91 94 94 85 81 84 90 80 82 82 83 85 91
98 93 97 97 97 77 62 53 51 56 59 66 70 71 74 82 80 80 76 78 82 85 79 82 86 90 92 93 89 92 93 91 91 93 94 97 90 89 94 86 75 76 76 78
80 82 92 96 70 52 50 50 52 54 61 71 76 83 85 87 85 86 90 88 83 84 86 84 86 92 93 93 94 92 96 94 96 97 98 97 98 98 98 98 98 97 88 81
61 56 58 54 51 57 58 54 63 72 73 76 75 83 83 90 93 92 82 74 74 84 88 92 93 92 89 90 95 92 90 97 98 99 98 98 98 98 95 95 95 96 93 90
53 53 60 64 66 72 75 78 83 86 84 88 90 87 86 86 92 94 92 86 89 96 95 94 90 92 88 91 92 95 95 92 93 96 97 98 97 98 96 95 95 96 95 95
74 87 84 78 79 81 84 84 90 94 94 95 96 94 94 95 95 96 97 96 94 96 96 96 94 92 90 89 92 95 97 96 90 93 93 96 95 95 95 96 97 97 97 98
69 75 76 77 78 81 86 84 82 85 95 94 95 95 95 96 99 97 95 95 97 95 96 94 91 91 90 85 84 88 92 92 92 96 95 92 94 96 94 96 94 96 97 93
69 78 83 82 83 83 86 91 94 94 96 96 96 97 98 99 98 98 98 94 95 96 91 90 79 82 81 80 79 87 91 92 90 92 96 93 94 91 96 96 96 96 97 97
82 80 84 88 84 86 97 97 96 98 98 97 97 96 98 97 97 98 98 97 95 94 91 90 75 71 75 75 91 87 93 93 95 97 97 96 98 97 97 98 97 98 97 98
95 95 96 96 98 97 97 97 97 97 97 98 95 98 97 96 95 97 92 98 94 89 88 82 80 75 69 79 86 94 93 94 96 97 97 98 98 97 97 98 98 99 98 99
97 97 98 97 97 98 98 97 96 97 96 96 98 99 99 96 98 97 92 94 91 89 90 85 80 87 81 98 92 97 94 94 96 96 96 98 97 98 98 99 98 99 99 99
95 96 96 94 96 95 96 95 96 95 95 96 95 96 96 96 96 96 99 81 85 88 91 97 93 90 94 96 100 97 96 96 97 99 97 100 97 99 97 95 99 99 97 98
95 94 92 94 92 93 96 93 92 92 94 93 96 93 88 96 98 92 83 85 84 85 96 95 89 89 92 98 99 97 98 100 98 98 98 94 100 99 97 98 98 100 100 98
94 94 94 94 91 92 93 89 84 79 91 83 82 79 76 79 92 96 98 98 90 90 99 90 83 89 98 100 98 97 98 100 94 97 100 99 97 98 100 99 100 99 96 97
94 93 92 88 86 87 87 78 92 94 93 97 96 97 97 97 93 92 96 97 93 94 96 98 96 96 99 99 98 97 97 96 98 99 100 98 100 99 98 98 99 100 100 99
93 88 90 87 84 77 86 91 97 98 97 98 97 96 95 98 97 96 90 96 99 98 98 98 97 97 98 98 96 95 97 96 97 97 97 97 98 98 99 99 99 99 100 99

GFSNGP_sfc_rhum_108.txt.gz
RH
98 98 94 97 100 98 99 99 93 100 97 96 95 95 95 91 80 80 81 80 87 92 93 94 92 91 88 87 90 87 86 90 92 90 90 92 96 97 96 96 95 93 95 95
99 96 84 98 97 90 98 100 99 93 97 98 97 90 90 88 81 79 78 85 86 91 91 92 94 91 90 89 88 88 87 91 92 90 88 92 94 96 96 96 94 93 93 92
96 88 90 86 99 92 94 90 88 94 98 95 93 92 96 96 94 86 78 87 95 95 96 94 96 94 95 92 86 87 90 89 88 91 92 94 93 95 96 97 96 96 96 95
88 94 89 99 94 81 86 86 80 89 91 87 88 94 94 96 96 94 76 82 89 93 94 94 92 91 90 87 87 89 91 89 91 90 93 92 96 98 98 95 96 95 96 96
97 93 97 75 75 90 91 97 93 89 93 90 94 84 95 94 97 97 81 79 79 81 87 90 90 94 90 92 92 92 94 95 97 95 96 95 96 98 98 97 96 97 94 95
98 88 95 89 76 66 68 92 97 87 89 81 90 92 95 96 98 89 73 71 72 73 70 78 85 83 89 89 91 95 96 97 96 98 96 98 99 99 100 97 98 97 97 97
92 89 84 88 79 66 80 98 98 92 92 86 91 95 96 92 90 90 65 67 69 73 76 75 75 84 90 86 93 94 92 92 94 95 97 98 98 99 99 98 97 97 96 96
88 84 88 87 77 82 98 99 98 95 84 88 87 88 96 91 88 76 70 68 69 76 80 76 78 83 88 94 77 77 86 90 91 93 96 97 97 97 97 98 97 96 96 96
90 95 97 98 99 99 98 98 98 92 79 75 83 90 93 90 89 82 74 74 72 74 77 80 82 88 90 97 83 78 75 83 86 84 86 88 94 96 96 97 96 96 96 96
94 97 95 97 96 94 92 89 76 66 81 82 87 83 84 82 83 81 78 81 77 76 75 83 83 84 93 90 84 89 82 76 78 82 83 84 80 82 88 92 92 94 95 96
97 94 91 90 94 83 72 63 61 63 66 64 70 73 72 75 77 78 79 81 80 82 81 82 79 84 86 89 85 85 87 89 82 80 82 83 89 91 90 96 92 94 96 96
95 99 93 96 97 81 76 75 68 70 76 72 72 79 77 85 80 80 84 81 82 80 82 86 84 85 87 89 90 89 85 90 95 92 87 84 85 90 82 85 86 87 89 94
97 95 95 98 99 85 67 63 64 68 70 82 79 82 84 86 81 82 82 80 81 84 78 80 84 88 91 92 93 95 97 95 96 95 96 92 96 91 96 92 83 85 86 84
86 86 92 87 74 61 59 63 71 74 77 81 81 82 85 87 85 85 90 87 78 78 83 86 88 92 93 94 96 94 97 98 99 100 100 99 99 100 99 100 99 98 88 86
77 62 63 64 66 67 65 69 76 77 77 80 80 82 80 90 93 89 80 74 73 83 90 91 92 92 89 86 91 98 96 98 98 99 99 99 98 97 97 97 97 98 96 92
58 58 64 74 79 80 78 78 86 89 86 86 87 87 86 88 94 96 91 89 86 92 92 94 87 90 91 87 92 95 98 96 97 98 97 97 99 97 96 96 96 98 98 99
85 82 80 84 84 85 93 92 90 91 95 96 98 97 97 97 95 94 95 97 97 97 98 96 92 94 90 91 93 97 98 97 95 94 96 97 98 97 97 96 97 99 100 99
79 84 82 80 85 90 87 83 83 85 98 97 94 96 97 97 98 98 98 97 98 91 92 95 94 90 89 90 92 95 97 97 97 99 97 97 98 98 98 96 97 98 100 97
79 84 86 83 83 84 86 92 95 95 97 97 95 98 100 100 100 100 100 98 95 96 90 93 80 83 85 87 89 93 96 95 94 98 98 95 97 97 98 99 98 99 98 98
86 84 83 86 84 87 97 98 98 98 100 99 100 100 99 98 100 100 100 98 94 93 92 92 75 70 81 84 98 92 96 97 96 100 98 99 99 100 100 99 98 100 100 100
96 96 96 96 100 98 98 98 97 96 97 99 93 96 97 95 99 100 98 99 92 93 92 83 82 81 76 91 96 97 97 99 98 98 99 98 98 99 100 100 99 99 99 100
98 97 99 99 98 100 100 98 96 98 98 97 100 100 100 98 98 100 94 94 92 95 93 89 86 87 82 99 93 99 97 97 98 98 99 99 98 98 99 99 99 100 100 100
97 97 97 98 98 97 98 98 98 97 98 98 96 95 98 96 96 99 99 87 90 94 93 97 98 90 93 97 100 100 100 99 100 99 99 100 100 100 98 99 99 99 100 100
96 97 94 93 97 96 97 94 95 93 96 92 94 92 90 96 96 95 91 90 87 88 94 98 92 88 95 100 100 100 100 100 96 97 100 100 100 100 100 100 100 100 100 100
94 94 96 97 92 95 90 87 93 91 94 90 91 92 88 85 93 95 97 94 100 94 96 100 93 90 97 100 100 100 100 100 100 98 100 100 99 99 100 100 100 99 100 100
94 96 96 91 93 95 93 91 94 97 97 98 97 99 100 99 98 95 96 97 95 96 97 98 100 98 98 100 100 100 100 100 100 100 100 100 100 100 100 100 100 100 100 100
96 96 97 98 94 84 93 96 98 96 98 99 97 96 98 98 99 97 98 99 100 99 97 97 98 98 98 99 99 99 99 100 100 100 100 100 100 100 100 99 98 100 100 100

GFSNGP_sfc_rhum_111.txt.gz
RH
99 99 89 95 99 98 96 96 93 98 96 97 97 96 99 82 76 78 82 82 88 89 89 88 89 86 85 86 86 84 86 89 91 89 88 89 90 89 92 96 94 94 97 97
99 91 86 95 95 93 98 100 97 88 95 96 96 95 91 89 79 80 82 84 87 88 86 90 87 87 86 87 87 84 86 90 89 87 87 90 90 90 91 92 93 97 97 97
96 81 86 81 99 96 90 90 90 88 95 96 94 90 96 92 85 82 84 89 95 96 94 93 94 88 93 92 87 88 89 86 87 88 89 91 91 91 94 96 96 96 96 96
96 96 90 99 95 93 83 87 89 84 91 85 89 94 94 96 91 84 85 87 92 95 95 94 91 89 88 86 89 91 92 90 89 88 89 88 91 94 97 99 100 98 98 96
97 89 96 92 89 91 91 96 93 92 87 88 93 87 92 94 95 83 85 83 85 82 89 90 92 89 87 91 91 91 95 95 95 92 91 91 94 96 96 96 99 100 98 96
97 88 95 92 80 71 72 94 94 92 90 92 91 90 97 96 92 82 78 75 78 78 77 85 88 88 87 89 91 95 95 96 95 95 95 95 96 97 97 95 97 96 96 97
96 89 91 87 92 81 89 98 97 86 88 90 91 98 98 86 89 82 73 73 74 79 84 86 85 82 86 88 90 91 90 90 92 93 94 96 96 97 96 97 96 96 96 98
87 83 92 94 82 82 98 99 90 86 78 85 89 92 92 93 93 88 82 76 73 82 87 83 83 80 86 94 90 76 83 88 89 90 92 93 94 94 94 95 95 97 97 96
94 94 98 99 99 98 95 96 99 85 72 74 84 92 93 96 94 91 85 83 76 79 83 84 85 86 89 93 86 83 75 82 87 85 87 88 92 93 92 92 94 96 96 96
94 96 94 92 90 91 90 82 77 83 84 84 88 88 92 91 90 89 87 85 78 80 84 84 82 82 88 86 87 83 80 79 78 84 82 84 83 83 89 93 93 92 93 95
96 93 87 92 92 83 71 67 72 70 71 73 75 80 80 84 86 84 83 82 78 80 81 85 82 84 86 86 86 84 86 85 84 82 84 85 90 92 90 96 93 95 97 96
99 92 94 96 93 77 80 78 75 78 82 80 78 84 85 86 84 85 84 79 80 75 76 84 82 85 87 87 87 91 82 89 92 94 91 87 92 92 84 84 86 88 91 91
96 93 96 97 98 73 76 73 73 79 82 89 84 82 81 86 85 80 82 75 75 77 77 81 83 84 88 89 90 93 95 94 96 96 96 92 96 95 97 89 80 86 86 84
88 84 85 74 80 70 75 78 80 81 81 77 78 78 82 84 82 86 90 84 73 78 82 84 86 89 90 89 94 97 97 99 99 98 98 98 99 98 98 98 99 97 89 88
70 66 70 69 69 73 71 73 76 79 78 81 76 77 78 89 93 92 86 71 67 82 88 88 90 90 88 87 91 96 96 98 99 99 99 98 97 97 98 98 99 99 96 93
60 62 66 73 80 80 78 78 84 86 84 86 90 87 88 91 95 95 95 92 86 96 94 95 90 93 88 93 94 95 98 95 96 98 99 100 98 97 97 98 98 98 97 99
81 85 84 84 82 87 92 88 85 89 95 96 99 98 96 96 94 95 95 96 98 97 98 98 98 93 91 94 96 98 99 98 97 97 98 99 98 97 98 98 100 100 100 100
85 82 78 80 86 87 85 82 84 87 98 96 94 96 97 97 99 98 99 97 95 88 94 97 93 90 90 95 96 96 97 97 98 98 97 98 99 98 97 98 98 99 100 99
81 86 86 82 82 84 88 93 96 95 97 97 94 98 100 100 100 100 100 100 94 92 88 94 84 81 85 91 93 95 97 97 96 97 97 98 99 99 99 99 99 100 100 98
86 84 84 88 86 88 96 98 97 98 100 99 100 100 98 98 100 100 100 99 97 94 94 93 79 74 79 88 99 93 97 98 97 100 100 99 100 100 100 99 98 100 100 100
97 96 96 96 100 99 98 99 97 96 98 100 90 90 95 98 100 100 98 98 92 93 94 88 84 80 79 94 92 97 98 100 100 100 100 99 99 98 100 100 100 100 100 100
98 97 100 98 97 100 100 99 97 98 98 97 99 100 100 98 99 100 96 93 94 92 97 94 91 89 80 100 92 100 98 98 99 100 100 100 99 99 99 100 100 100 100 100
97 97 98 99 99 98 98 97 100 99 99 100 99 96 96 94 97 99 99 88 91 93 90 98 98 96 94 99 100 100 100 100 100 99 100 100 100 100 100 99 99 99 100 100
97 98 97 96 97 97 98 96 96 94 97 94 95 93 91 97 97 91 94 94 93 94 94 95 99 97 96 100 100 100 100 100 100 98 100 100 100 100 100 100 100 100 100 100
95 96 96 99 97 97 91 89 91 94 95 94 94 90 92 95 97 96 97 93 98 98 95 94 100 99 99 100 100 100 100 100 100 100 99 100 100 100 100 100 100 100 100 100
94 97 96 92 94 97 97 99 98 97 98 97 97 99 96 97 98 99 97 97 97 98 97 95 99 99 100 100 100 100 100 100 100 100 100 100 100 100 100 100 99 100 100 100
97 98 98 98 98 97 94 95 98 98 97 99 98 96 98 98 98 100 100 100 100 99 98 97 97 98 98 98 98 99 100 100 100 100 100 100 100 100 100 100 100 99 100 100

GFSNGP_sfc_rhum_114.txt.gz
RH
98 96 89 92 99 93 90 90 91 98 94 97 96 96 98 92 76 81 82 84 89 91 90 89 85 86 86 87 87 85 85 87 90 88 87 87 89 88 88 90 89 90 95 97
99 100 96 93 95 85 94 97 97 92 94 97 96 95 93 93 79 83 84 86 88 89 89 89 85 86 87 88 88 85 86 89 86 85 86 89 89 90 89 89 90 91 93 93
97 78 78 80 98 97 89 91 93 84 95 96 93 88 95 92 86 85 84 87 94 95 94 93 90 86 93 90 85 86 88 86 87 86 86 88 88 90 93 95 93 95 94 94
97 94 90 94 80 80 84 88 90 84 90 85 90 95 95 94 92 86 83 86 92 96 95 95 90 87 87 85 87 90 91 90 89 88 89 87 88 92 94 95 98 98 98 96
98 93 95 85 87 92 92 95 93 95 94 91 93 90 94 96 86 89 88 86 90 89 94 94 94 90 86 88 89 89 94 95 94 90 92 91 94 94 94 94 95 96 96 96
96 87 96 92 81 79 79 91 88 83 89 92 94 89 94 93 89 87 82 79 83 84 84 85 88 86 89 88 89 94 95 95 94 94 95 95 96 96 95 94 96 93 94 96
96 90 91 88 92 91 90 99 88 85 91 89 92 95 96 91 93 89 79 78 77 83 89 88 80 76 89 89 93 89 90 90 91 92 94 94 94 94 94 94 92 93 94 94
94 90 89 95 89 82 98 94 91 80 83 92 94 95 96 96 97 92 89 82 78 84 86 84 85 81 86 92 86 81 81 88 90 90 92 92 93 93 92 93 92 93 92 93
95 94 98 96 96 94 92 97 94 81 80 85 92 97 97 99 97 95 91 87 79 84 83 82 83 84 88 92 89 72 80 80 86 84 86 87 88 90 92 93 93 93 92 94
92 96 95 94 90 90 82 89 87 78 88 85 92 92 96 94 93 91 89 83 80 82 84 84 80 79 84 83 82 82 77 81 75 82 84 79 76 79 86 88 89 90 90 95
96 95 94 94 88 86 76 73 77 76 76 78 80 85 86 88 86 85 83 81 75 77 80 84 80 82 83 83 79 79 77 77 81 79 83 86 87 92 89 96 95 94 96 95
98 91 94 97 86 79 82 83 80 82 87 86 86 91 86 82 83 86 81 72 74 73 75 81 78 77 79 80 84 82 82 83 92 93 88 85 90 90 80 83 81 82 81 88
97 92 93 96 82 77 80 80 81 85 85 86 83 83 83 88 83 80 82 72 75 77 74 77 78 80 86 87 86 92 94 92 94 94 94 95 94 92 96 88 77 82 83 78
84 78 83 77 86 78 81 82 81 82 78 76 78 78 80 81 81 86 90 78 72 76 81 83 82 86 90 93 95 96 97 96 99 99 100 98 98 98 98 99 99 96 86 86
70 71 72 74 75 79 76 76 78 81 79 80 74 76 79 92 95 95 89 69 69 83 90 91 88 88 88 91 93 96 95 97 98 100 100 98 98 98 99 98 97 98 95 93
66 67 70 74 80 79 79 80 84 85 84 89 91 89 90 90 92 94 93 93 86 94 94 95 86 89 90 95 95 96 98 97 97 99 100 98 98 98 98 98 97 98 98 99
83 87 83 83 83 86 88 86 86 90 95 97 99 98 96 96 95 96 96 97 98 97 98 98 97 91 92 97 98 99 98 98 98 98 98 100 97 98 98 99 100 100 100 100
84 78 73 76 83 85 85 83 85 88 97 96 95 97 97 98 98 98 99 98 91 90 94 98 96 91 90 95 98 96 98 97 99 99 97 98 100 97 99 98 99 100 100 98
82 85 84 80 81 84 89 93 95 94 96 97 96 98 100 100 100 100 100 100 98 94 88 96 88 83 80 90 95 93 97 98 97 97 97 99 100 98 98 99 100 100 99 98
87 85 85 89 87 88 96 98 97 98 100 99 100 100 94 98 100 100 100 100 96 94 95 95 82 76 79 90 99 95 97 98 97 99 100 99 100 100 98 98 99 100 100 100
96 96 95 94 99 98 98 99 98 98 100 100 92 89 95 98 100 100 100 98 91 94 94 92 88 86 75 92 96 99 99 100 100 100 100 100 100 99 99 99 100 99 100 100
98 97 99 99 96 100 100 99 97 98 98 98 100 100 100 92 98 99 96 95 93 94 92 97 96 96 80 100 96 100 98 99 100 100 100 100 100 100 100 99 99 100 100 99
97 96 97 98 97 97 99 98 100 98 99 100 99 98 96 92 96 98 96 88 92 96 88 96 99 100 97 98 100 100 100 100 100 100 100 100 100 100 100 100 100 100 100 100
97 97 97 96 97 97 97 95 96 95 98 96 96 95 94 99 98 95 93 95 97 96 97 94 98 100 100 98 100 100 100 100 100 100 99 100 100 100 100 100 100 100 100 100
96 97 96 97 97 98 95 90 94 94 96 95 96 93 84 97 99 96 99 98 99 97 96 97 99 100 100 100 100 100 100 100 100 100 100 100 100 100 100 100 100 100 100 100
96 97 96 93 95 97 97 98 100 98 98 98 97 99 97 98 96 97 98 100 99 98 99 97 100 100 100 100 100 99 99 100 100 100 100 100 100 100 100 100 100 100 98 99
98 98 98 98 99 99 98 97 97 97 98 100 99 98 99 99 98 98 100 100 100 100 100 98 99 98 99 97 97 97 97 99 100 100 100 100 100 100 100 100 100 100 100 99

GFSNGP_sfc_rhum_117.txt.gz
RH
99 98 84 93 96 88 87 80 78 94 89 93 95 95 95 95 94 90 91 84 87 93 92 85 84 82 82 83 82 79 81 84 87 84 83 84 87 88 87 88 88 88 89 89
97 100 96 94 96 79 90 87 92 85 91 96 95 95 93 92 84 79 79 83 83 81 81 82 79 82 82 83 84 80 83 87 82 82 83 86 87 88 88 89 88 90 90 89
87 95 83 89 97 96 87 86 81 76 90 93 91 90 91 89 81 80 78 82 90 93 91 89 85 78 86 84 79 82 84 83 84 83 83 86 86 86 90 92 91 91 91 91
86 97 93 98 90 88 81 87 87 82 85 78 82 89 89 87 83 82 78 81 88 94 94 93 89 83 78 77 81 86 87 85 85 85 84 83 86 90 93 93 95 94 94 92
96 88 96 94 90 89 87 91 88 90 88 83 87 74 88 87 79 82 82 80 82 82 90 89 93 89 86 85 85 87 92 94 92 88 87 88 92 94 95 94 95 95 94 94
93 91 93 91 91 86 79 80 83 78 83 76 89 78 85 88 84 80 72 70 72 69 69 77 81 78 87 88 89 92 92 93 91 94 93 94 95 96 98 97 100 95 97 94
90 89 88 84 94 96 89 90 83 76 76 70 80 84 89 83 86 78 67 67 65 66 71 73 69 69 80 85 92 87 84 84 90 91 92 92 95 96 97 99 98 97 99 99
88 91 92 90 96 82 91 92 81 78 77 81 84 88 89 89 93 79 70 65 63 65 67 67 66 68 76 87 77 67 72 78 82 84 88 89 88 91 92 91 91 90 90 90
90 90 95 98 95 97 90 86 85 79 72 72 84 92 92 94 91 82 66 62 61 62 63 64 65 70 77 81 70 68 65 65 71 72 75 78 86 88 81 84 86 86 87 91
95 96 93 92 94 82 84 91 79 71 73 73 83 85 88 82 80 73 63 60 59 61 64 67 61 62 70 73 65 63 67 63 56 61 62 67 65 64 72 84 80 81 84 88
94 94 89 88 89 79 74 73 72 68 68 71 71 75 70 69 66 62 55 55 55 59 61 63 58 62 64 67 65 60 63 66 65 61 60 58 67 76 76 88 86 84 87 88
92 89 86 92 91 77 76 76 72 71 76 73 69 71 68 72 70 65 55 53 54 52 53 57 57 65 69 68 68 65 62 63 75 72 69 61 58 58 75 76 78 78 78 86
93 89 93 91 80 70 73 73 70 70 67 70 68 67 68 70 68 66 57 52 55 58 53 53 58 67 78 80 78 81 81 75 71 76 72 69 68 70 74 74 70 75 79 78
79 79 86 69 74 67 69 70 70 65 64 64 64 64 66 68 70 69 69 60 57 59 63 62 63 75 87 90 90 93 87 86 83 88 87 82 82 86 87 88 87 85 77 83
81 74 67 72 71 72 67 66 70 69 68 66 61 65 67 78 83 83 74 60 58 67 73 71 74 77 81 85 86 91 85 84 89 91 92 88 85 85 84 82 82 82 76 73
66 68 68 69 70 69 69 71 72 76 75 75 74 76 74 74 78 81 83 79 68 78 84 90 78 82 78 90 90 84 84 89 91 88 88 86 83 81 79 79 78 80 80 82
74 79 74 76 75 76 77 75 74 80 87 90 92 90 85 85 87 89 89 89 89 89 88 91 89 90 84 90 93 86 86 81 94 77 81 84 83 83 81 81 81 80 84 88
69 67 66 68 74 76 76 74 75 78 87 88 90 90 89 88 85 87 89 93 88 82 83 89 90 83 83 88 85 78 80 78 76 80 76 82 83 79 82 80 77 77 79 79
70 73 72 70 70 73 76 81 84 86 90 90 87 86 89 92 92 92 94 94 92 86 78 86 78 68 64 78 77 72 77 80 74 73 79 85 85 82 83 85 84 85 80 80
78 76 76 79 77 80 93 94 93 95 96 93 95 88 85 91 94 97 96 93 86 75 81 80 71 63 61 70 90 67 79 82 74 78 85 82 87 89 89 88 86 88 90 89
95 93 94 93 96 95 95 95 95 95 96 97 82 79 84 86 89 94 89 76 78 85 78 82 70 61 51 65 67 79 81 84 83 82 86 90 90 86 88 90 90 90 90 90
94 93 95 95 93 96 96 94 88 91 88 86 89 90 89 86 87 89 92 83 71 89 74 66 64 78 66 84 64 85 80 81 82 84 82 85 87 89 90 90 89 90 90 90
93 92 93 95 94 92 94 93 95 92 91 91 91 90 88 82 81 85 78 68 76 83 81 75 80 92 92 85 83 84 85 86 87 88 89 90 90 92 92 90 89 91 91 90
93 91 91 91 93 88 88 88 89 87 94 92 94 94 87 85 84 70 71 84 95 96 92 89 86 87 100 88 89 89 89 89 89 91 88 97 92 92 91 92 91 89 92 93
90 92 91 93 87 80 80 79 82 82 86 78 81 78 78 74 89 80 86 86 94 92 90 90 94 94 94 94 94 94 93 93 92 93 92 91 89 91 91 90 92 90 91 91
87 81 80 82 76 75 75 79 80 81 76 82 79 86 88 87 86 87 88 94 90 92 91 93 93 94 93 92 92 92 92 90 91 92 93 92 90 89 91 90 91 90 88 89
83 88 80 80 81 82 84 83 80 85 86 90 89 89 89 91 91 88 94 91 91 92 93 93 93 92 92 91 89 90 90 89 91 90 91 92 93 91 91 92 91 91 91 92

GFSNGP_sfc_rhum_123.txt.gz
RH
62 54 61 71 79 70 70 72 84 93 86 85 83 84 90 87 74 69 81 80 89 96 97 97 97 95 95 80 78 72 74 76 78 75 75 78 81 82 83 84 83 82 83 85
97 64 66 95 91 69 69 72 81 67 85 73 69 70 80 73 60 60 64 69 76 80 79 90 79 76 73 75 78 74 74 78 75 75 76 80 84 83 84 85 85 85 85 85
67 58 62 90 98 89 64 51 62 66 72 67 69 70 80 74 64 65 66 68 83 88 86 86 84 76 78 73 74 80 81 78 76 74 75 78 74 82 88 91 90 91 90 88
62 72 88 94 54 49 52 52 49 55 62 55 61 69 72 69 68 68 65 63 71 93 89 84 77 77 77 74 71 80 83 82 78 76 76 78 80 84 88 89 92 92 91 90
71 57 91 82 61 55 56 66 56 59 58 58 60 63 83 69 64 63 60 54 50 52 76 77 80 73 74 83 79 80 92 93 88 80 81 82 87 89 90 89 94 99 96 94
63 68 78 87 61 55 53 72 55 56 61 62 60 87 78 74 72 61 46 43 42 41 41 45 50 58 67 83 89 89 91 94 95 94 96 94 98 98 92 88 100 94 100 100
70 63 72 63 67 73 85 89 59 52 54 61 74 76 76 67 74 57 41 40 39 39 40 40 39 44 57 56 77 89 69 68 86 96 97 100 100 99 100 100 100 100 100 100
60 63 72 67 96 96 79 64 59 56 58 67 72 75 78 78 79 50 40 38 36 40 41 40 37 39 45 50 40 40 47 53 55 60 76 76 91 92 94 96 98 97 96 95
66 82 76 94 98 78 71 74 64 59 54 60 74 85 84 85 77 49 36 34 34 36 38 40 39 38 42 44 35 36 38 42 43 44 43 48 62 74 75 81 84 84 84 88
78 77 74 91 99 94 86 78 59 52 55 58 69 68 70 60 49 40 31 30 30 32 34 38 39 40 43 42 37 35 38 40 41 42 41 38 43 44 55 68 70 73 80 87
91 83 82 94 99 96 91 67 52 48 48 48 46 44 42 41 38 33 31 30 28 31 32 31 34 40 42 43 42 41 39 40 46 45 44 41 44 57 56 75 70 71 78 81
94 83 89 91 100 96 91 71 53 51 50 44 43 45 44 44 37 32 33 31 30 32 33 32 34 40 45 46 46 50 48 47 52 51 50 47 46 49 75 71 69 69 68 74
82 88 98 100 96 91 85 57 48 47 45 48 44 43 43 42 41 42 32 32 34 37 39 40 44 52 55 56 58 62 63 55 54 57 55 57 59 61 66 64 62 71 67 64
74 77 92 84 83 61 47 47 47 43 43 44 44 45 47 48 48 48 50 43 41 43 47 48 54 70 69 69 73 79 73 65 67 69 71 71 72 75 75 76 78 77 64 63
66 64 63 62 48 48 46 45 47 46 46 47 45 49 52 56 58 56 46 42 41 48 53 58 65 69 64 66 70 74 66 68 73 73 73 71 72 72 70 68 69 69 65 62
60 60 54 54 50 50 49 48 46 49 48 48 48 48 47 48 53 59 60 61 58 61 66 80 70 76 74 75 76 66 65 62 63 68 68 67 66 66 64 64 63 65 66 77
62 62 57 57 56 56 56 52 55 59 64 72 76 68 66 69 72 76 77 77 75 80 77 74 77 79 79 75 76 66 64 59 57 57 59 59 62 63 60 64 67 64 67 89
44 48 50 53 57 59 58 56 59 64 74 74 76 79 79 78 77 77 79 80 82 82 79 74 76 77 72 66 66 55 53 53 53 55 52 60 59 57 64 63 66 74 68 62
48 51 54 55 56 55 54 58 65 71 83 83 76 76 76 78 78 79 81 84 86 86 91 76 68 66 54 55 53 48 51 56 55 49 55 58 63 61 65 76 70 69 74 70
57 57 55 56 53 56 75 84 85 84 80 76 82 83 80 82 82 82 82 85 79 71 71 66 62 55 49 45 48 44 52 62 56 60 66 64 76 77 74 66 68 71 77 81
91 86 84 85 90 88 88 85 85 83 81 79 76 78 78 76 77 83 83 60 69 71 64 65 60 53 43 47 45 54 64 71 69 68 72 74 76 77 75 76 79 82 85 85
90 90 90 89 87 89 86 80 79 84 82 80 80 80 82 84 85 82 85 67 52 55 57 50 46 60 58 71 52 70 68 67 69 72 74 80 80 81 82 81 78 80 81 86
86 85 85 85 84 83 80 79 80 78 80 81 82 83 76 63 59 62 62 57 50 61 58 57 65 71 80 83 81 83 84 83 83 83 84 87 88 84 83 81 80 77 75 79
83 79 81 77 78 72 75 76 69 71 80 79 82 83 74 67 68 49 49 56 61 78 71 74 84 73 78 81 84 85 87 85 84 85 81 78 81 85 89 87 83 78 79 77
78 78 78 76 60 59 57 55 55 53 60 54 56 62 60 52 72 65 69 70 65 63 70 67 72 79 76 80 87 82 79 81 86 85 79 86 87 84 84 82 86 89 80 77
70 62 60 55 51 49 47 48 50 53 50 65 64 79 76 72 64 64 66 65 64 66 72 78 84 80 82 80 79 77 82 77 79 83 83 80 81 82 82 79 80 80 91 84
60 60 54 52 48 46 48 52 62 65 68 78 71 77 66 69 71 65 68 74 75 75 75 75 74 73 74 77 72 74 72 74 80 82 74 77 81 83 88 90 88 88 80 88

GFSNGP_sfc_rhum_129.txt.gz
RH
77 70 64 68 94 69 74 76 84 95 93 86 80 84 78 78 78 73 78 79 81 87 89 87 85 87 79 77 77 80 86 87 88 88 90 88 89 90 92 96 99 97 93 93
92 64 69 80 93 81 77 75 84 77 87 74 76 76 73 80 67 67 67 75 72 75 81 84 78 74 77 75 76 75 77 81 80 80 80 90 94 94 90 90 88 88 90 89
86 67 88 88 84 87 74 72 72 86 81 76 73 76 75 76 69 68 65 73 87 90 89 83 81 77 81 76 75 75 78 77 78 78 81 81 80 85 87 88 88 88 89 87
94 76 95 88 66 67 60 51 65 73 76 72 77 74 77 78 76 71 67 68 77 86 90 86 77 76 84 82 75 80 81 79 77 79 82 82 82 84 88 90 89 89 89 87
94 88 85 75 61 64 62 69 61 68 73 77 78 80 86 73 75 73 65 63 62 64 74 79 73 66 77 86 86 75 88 90 83 80 80 84 88 89 89 90 90 91 88 88
91 87 89 88 74 62 58 96 59 60 72 78 83 97 96 78 77 81 54 53 50 48 47 50 61 60 64 80 75 78 76 80 90 83 83 81 85 89 88 86 91 88 91 88
89 93 88 75 76 68 89 91 62 55 60 66 85 94 85 76 77 75 47 47 48 48 48 47 47 52 61 60 73 72 67 63 74 79 85 84 83 82 88 89 88 90 91 90
93 91 89 80 83 93 85 74 76 75 78 87 85 85 84 82 86 68 46 42 43 48 48 47 47 50 57 61 50 50 59 67 66 74 71 80 85 85 84 87 87 89 90 91
92 96 90 98 95 84 76 86 87 92 89 90 93 89 90 91 88 51 38 40 38 42 44 45 46 49 58 59 52 53 57 64 67 66 69 72 87 87 88 89 88 88 86 91
92 92 96 99 97 90 91 92 87 86 93 92 88 81 81 79 70 44 35 38 38 41 46 51 50 50 55 59 57 57 60 63 66 69 67 80 77 83 88 94 90 87 91 97
94 92 93 98 100 97 97 96 93 93 85 72 66 66 61 43 39 36 36 40 45 51 52 54 56 60 61 63 65 67 65 63 72 74 75 74 84 96 85 96 88 92 97 98
95 85 88 93 95 90 90 93 91 94 91 67 51 45 41 41 39 39 44 46 50 53 56 61 60 67 71 70 70 79 79 70 79 82 86 78 86 86 75 84 73 74 67 86
95 91 92 95 92 91 94 92 90 87 62 53 49 46 44 49 50 51 51 52 54 58 59 65 72 76 81 78 77 80 90 70 78 83 82 83 86 86 93 82 74 91 76 67
88 90 97 90 92 81 85 82 67 50 50 52 52 55 64 65 62 61 64 63 56 61 69 71 75 92 92 92 92 93 94 89 92 94 94 95 94 94 95 96 96 93 92 71
78 64 75 71 74 81 61 50 53 56 59 65 66 68 67 72 74 74 69 61 58 74 85 92 95 96 93 89 86 91 84 94 95 94 95 96 94 93 96 95 96 97 97 96
66 73 76 85 84 61 55 55 59 64 65 67 66 66 69 72 79 82 84 78 64 84 90 96 94 94 92 95 91 89 86 91 89 90 91 92 94 92 89 95 92 96 97 98
77 86 84 72 68 68 66 68 68 72 83 84 87 87 87 90 93 95 96 95 96 96 94 97 93 95 95 96 92 96 92 93 88 85 92 93 95 92 95 95 95 96 95 99
66 68 68 68 73 77 74 69 76 78 87 87 88 90 92 94 94 96 95 96 96 94 97 95 93 93 94 95 91 88 91 81 90 92 94 95 96 92 96 96 94 96 96 94
63 70 73 72 78 74 73 77 85 89 91 90 89 93 94 96 96 97 96 97 98 98 96 96 93 90 86 90 72 82 86 90 89 88 90 95 95 94 97 97 97 97 97 97
75 75 75 76 76 80 95 94 92 92 89 89 93 93 97 97 96 96 97 97 96 97 91 88 78 76 81 73 80 76 89 94 89 89 96 95 97 98 97 97 96 97 99 98
91 90 90 91 96 96 94 93 90 90 96 92 91 95 95 95 97 96 98 98 96 88 85 77 93 92 81 86 82 95 95 96 97 96 97 97 97 98 97 96 97 97 98 99
94 94 96 94 94 97 95 93 91 93 94 97 97 96 94 93 97 97 95 96 90 91 87 92 89 90 86 98 91 96 95 92 91 92 93 94 94 96 96 92 91 94 94 95
96 95 95 94 94 95 95 93 94 91 94 92 90 93 94 96 96 96 98 88 85 88 91 97 97 94 92 96 98 97 95 94 94 93 92 94 95 94 94 93 93 94 93 93
97 94 93 92 92 93 96 96 87 88 91 90 91 94 92 96 98 85 85 91 91 93 98 96 94 92 98 98 97 97 98 100 94 97 93 94 92 92 93 94 93 91 88 89
93 92 93 92 89 90 78 74 73 74 83 81 83 82 82 89 93 97 94 95 92 93 96 96 95 97 98 95 98 100 100 100 100 95 94 95 98 99 97 93 90 91 91 91
87 90 86 78 79 76 73 70 79 81 82 96 94 97 95 93 91 93 94 95 93 96 96 98 98 98 99 98 100 99 99 98 98 94 98 97 97 93 91 91 92 91 92 95
84 85 81 79 78 70 72 77 94 95 97 96 96 96 93 94 94 94 97 96 97 96 100 100 99 97 97 100 98 97 100 100 98 94 98 99 95 98 93 92 94 94 94 89

GFSNGP_sfc_rhum_135.txt.gz
RH
83 74 69 71 73 68 78 81 93 81 88 87 90 95 90 86 85 81 88 80 88 93 92 91 86 85 79 74 75 71 67 73 86 92 96 96 96 95 96 96 96 96 93 93
91 66 63 70 72 72 71 74 84 81 84 85 89 86 87 83 76 74 76 74 77 85 82 84 79 78 77 75 76 71 70 67 69 71 78 90 92 92 93 94 94 91 90 91
75 63 65 82 77 77 82 77 77 86 74 89 89 82 88 84 74 71 74 73 81 89 88 82 83 76 85 77 74 75 75 68 66 70 69 74 78 78 82 85 88 88 90 88
83 85 92 68 73 72 80 69 68 77 88 81 82 86 86 81 79 73 74 70 76 91 86 86 80 79 78 76 76 78 82 74 70 69 73 68 72 78 83 83 87 90 88 87
94 83 71 64 74 78 87 81 73 83 88 89 87 85 93 80 78 75 75 72 68 70 80 81 79 77 76 82 81 79 84 88 80 76 76 77 80 83 82 84 87 89 90 88
98 93 95 71 77 67 69 91 74 81 88 89 84 95 96 85 80 77 66 60 59 58 55 58 66 70 77 83 85 88 83 85 88 83 87 87 87 88 85 82 87 86 88 89
96 94 83 74 74 74 90 81 77 74 79 84 88 92 91 83 87 65 53 55 52 52 56 56 56 63 77 79 85 84 77 74 81 87 86 90 91 87 90 88 86 85 88 89
91 96 87 81 77 83 85 91 85 78 76 81 93 84 83 85 79 56 51 48 47 50 54 54 55 63 75 84 75 69 75 75 74 78 81 82 90 89 88 88 87 84 84 88
73 79 94 92 95 89 81 88 90 87 82 86 82 85 87 87 73 56 43 45 44 42 43 50 54 66 79 78 76 64 71 77 79 72 72 78 90 91 91 88 87 83 80 88
95 93 93 95 96 89 86 92 86 78 83 86 91 79 75 63 57 50 42 46 42 38 43 49 57 64 71 73 75 59 65 70 72 79 75 71 77 77 80 90 88 83 83 85
97 94 89 91 93 94 91 85 82 80 86 90 83 62 50 57 62 56 47 48 45 42 45 52 56 67 72 72 74 56 57 62 76 75 78 74 66 78 81 95 80 86 89 87
91 84 87 91 93 90 93 90 82 84 94 91 72 67 68 79 64 51 53 52 49 45 48 53 57 69 74 74 73 75 61 66 81 85 83 69 74 78 72 75 73 71 66 74
87 84 91 95 93 87 89 88 88 87 82 86 77 77 86 87 55 56 54 51 51 52 52 56 62 74 80 76 73 77 82 68 82 77 73 78 89 89 95 84 73 73 68 66
86 91 98 92 95 83 80 78 82 86 81 79 72 73 67 60 60 58 59 58 54 55 58 63 71 89 93 93 90 91 94 90 96 98 98 97 98 98 99 99 100 98 86 72
84 81 87 82 85 87 86 88 94 96 92 93 86 84 65 75 76 72 64 54 59 79 84 87 87 91 93 88 84 89 87 97 98 98 98 98 98 98 99 98 99 99 97 93
86 88 91 92 90 93 93 68 73 85 88 80 74 65 67 71 76 80 70 68 69 86 90 92 92 90 91 92 93 90 93 92 96 97 98 97 98 97 98 98 98 99 99 98
95 96 89 87 91 94 83 72 76 81 79 82 88 88 85 88 90 92 93 92 89 92 95 96 94 95 96 97 97 98 97 94 95 95 96 97 98 97 97 99 99 99 98 99
80 84 80 76 84 75 75 74 75 79 86 89 89 88 86 84 85 94 96 97 97 97 96 95 96 97 96 97 97 94 96 95 95 97 96 98 97 96 98 98 98 98 97 96
78 88 88 79 75 73 75 80 83 87 91 90 88 88 88 89 90 96 96 97 95 90 89 96 92 94 91 91 86 95 97 97 96 94 95 97 97 96 98 98 98 98 97 96
90 86 82 81 78 76 92 94 92 91 91 90 91 93 92 96 96 96 98 96 94 96 96 94 90 87 87 90 98 94 96 98 97 97 99 99 100 100 100 98 97 99 100 96
90 90 90 89 96 95 92 90 90 91 94 89 88 91 90 96 96 95 98 98 97 96 93 90 91 97 91 90 88 97 98 100 100 100 100 100 100 100 100 100 100 97 98 96
92 91 92 94 93 98 96 92 90 91 91 91 90 90 91 96 98 98 98 92 92 98 94 90 91 98 90 95 89 99 97 98 99 100 100 100 100 100 100 100 99 99 99 99
93 92 93 93 93 95 96 93 91 87 88 88 88 94 92 94 91 96 97 86 93 96 87 97 99 100 100 99 100 100 100 100 100 100 100 100 100 100 100 100 99 100 100 99
96 94 96 95 93 92 95 96 86 87 90 92 93 92 92 97 99 90 91 97 97 97 98 97 99 100 100 100 100 100 100 100 100 100 100 100 100 100 100 100 100 99 99 99
93 95 95 94 90 90 81 74 74 75 80 72 72 86 83 87 95 97 97 96 96 96 96 100 100 100 100 100 100 100 100 100 100 100 100 100 100 100 100 100 100 100 100 98
89 92 90 83 82 78 75 71 78 81 79 94 97 98 98 95 93 94 95 94 94 94 97 100 100 100 100 100 100 100 100 97 100 100 100 100 100 100 100 98 100 100 100 100
94 93 89 89 81 76 76 80 87 91 92 95 98 98 95 96 96 94 96 96 99 99 100 100 100 100 100 100 100 100 100 100 100 100 100 100 100 100 100 100 98 99 100 100

GFSNGP_sfc_rhum_138.txt.gz
RH
84 81 82 79 80 75 74 73 91 73 72 60 85 92 90 89 86 86 86 82 94 96 95 94 91 89 83 81 78 73 72 74 82 84 90 91 91 94 95 94 96 96 94 94
93 72 76 78 74 70 64 67 76 68 70 78 92 92 90 83 79 76 69 71 79 79 82 88 82 83 82 81 81 76 72 73 70 72 68 88 88 92 89 93 95 95 96 95
80 67 76 79 77 72 72 74 73 83 73 91 94 86 87 85 74 71 68 70 82 91 88 85 87 81 89 85 81 82 78 73 72 72 73 72 70 76 87 86 88 92 91 90
88 86 94 65 66 70 76 73 76 79 87 83 86 89 86 81 78 74 69 69 77 93 89 89 86 85 84 84 83 83 85 80 75 72 74 71 74 76 79 83 88 87 88 86
96 86 70 60 57 85 86 77 76 78 93 94 90 85 93 79 75 79 76 73 75 76 84 85 86 84 83 89 88 84 89 92 86 81 77 78 80 81 80 82 86 88 87 87
97 96 92 70 78 73 73 86 81 84 92 90 84 96 95 86 83 75 67 63 61 59 60 66 70 77 82 90 91 92 87 88 90 86 90 89 88 86 81 77 86 86 87 85
91 93 84 68 73 73 91 76 84 80 85 84 86 92 92 86 82 68 57 56 54 53 58 61 64 71 83 83 88 88 79 77 83 88 89 90 90 88 87 85 83 88 91 90
91 95 89 81 78 83 81 88 86 82 83 82 93 90 86 81 76 60 55 51 46 53 57 57 66 71 79 85 72 71 74 77 76 76 79 83 90 90 89 87 87 88 89 92
80 82 88 89 95 90 82 81 86 84 82 87 87 86 88 83 77 60 49 47 42 42 50 60 65 71 79 77 67 64 67 70 74 68 65 70 79 84 92 90 86 85 86 91
85 84 88 91 95 87 81 88 86 83 84 82 88 81 79 77 66 56 50 46 39 42 48 61 67 67 72 70 65 58 62 64 64 68 61 60 71 74 88 88 85 84 88 92
94 89 90 89 92 91 90 85 85 83 83 79 73 68 61 69 78 56 52 45 42 42 46 59 65 71 72 71 67 54 57 62 67 60 60 68 68 77 76 86 74 84 88 96
87 82 86 87 94 89 92 92 90 88 90 71 61 59 72 88 89 55 57 48 44 42 46 56 68 73 73 70 60 59 56 64 73 67 70 67 74 68 63 69 63 63 62 75
88 85 90 97 93 84 93 90 81 89 89 73 70 79 85 87 58 57 53 48 47 49 51 55 68 77 80 74 68 70 78 69 72 69 73 77 86 84 93 84 70 64 64 60
90 91 96 96 96 84 83 85 82 84 88 80 84 87 85 64 60 58 59 57 53 54 60 63 75 92 93 92 90 91 90 88 90 92 93 91 95 98 99 99 100 96 83 73
91 83 88 89 83 80 79 86 92 94 84 85 83 79 68 72 74 72 64 52 56 76 84 88 88 94 92 87 83 88 81 92 95 96 97 98 98 97 99 98 98 99 96 91
89 94 93 92 88 92 91 89 92 89 89 92 87 72 69 73 75 73 69 70 71 88 87 92 88 93 93 92 93 90 92 91 95 97 97 97 98 98 97 97 97 98 97 98
97 98 96 95 88 94 86 87 87 90 92 95 93 87 88 90 92 91 92 94 91 95 96 96 94 96 96 97 96 98 98 96 96 97 98 99 100 99 97 98 98 99 99 100
81 86 86 87 92 88 77 78 84 89 90 90 89 89 90 88 89 93 94 95 96 97 97 97 97 97 96 96 96 95 96 96 97 98 96 99 98 95 96 97 96 98 98 94
84 87 85 82 80 76 77 82 86 87 91 90 88 87 88 90 90 95 97 97 97 96 92 97 91 93 93 93 91 90 94 96 97 94 95 98 98 98 99 100 100 100 99 98
93 91 86 78 74 78 92 95 93 94 94 91 90 87 89 94 96 97 98 95 94 96 96 94 86 87 92 86 96 91 95 98 94 97 99 99 100 100 100 100 99 100 100 100
94 92 91 89 93 92 90 90 91 94 95 88 85 86 87 96 94 97 98 95 98 98 91 88 92 95 83 86 90 98 98 100 100 100 100 100 100 100 100 100 100 99 99 100
93 93 92 93 92 98 97 94 92 92 91 94 94 90 93 96 97 98 98 92 95 96 90 92 91 95 90 94 89 100 96 98 99 99 100 100 100 100 100 100 100 99 100 100
93 93 94 94 94 97 95 93 92 89 90 91 90 89 85 87 92 95 97 91 91 94 90 94 96 99 99 98 100 100 100 100 100 100 100 100 100 100 100 100 100 100 100 100
96 95 97 96 94 91 94 96 88 89 90 88 87 88 88 96 99 92 91 95 95 96 95 96 98 100 98 100 100 100 100 100 100 100 100 100 100 100 100 100 100 100 100 100
93 95 95 94 92 95 89 82 77 74 78 76 79 89 86 88 95 96 96 96 96 93 96 98 98 100 100 100 100 100 100 100 100 100 100 100 100 100 100 100 98 99 100 100
87 92 93 90 88 87 80 74 85 86 85 94 98 98 98 96 95 95 95 94 93 93 96 98 98 98 99 100 100 100 100 99 100 100 100 100 100 99 100 99 99 99 99 99
92 93 92 90 82 80 79 83 90 93 92 94 98 98 97 97 96 95 96 97 96 96 98 99 98 96 100 100 100 100 100 100 100 100 100 100 100 100 100 100 99 99 99 100

GFSNGP_sfc_rhum_141.txt.gz
RH
68 64 64 66 72 64 64 66 77 71 64 60 57 73 82 83 79 73 77 74 77 83 86 85 79 77 66 61 59 55 58 63 79 83 84 85 88 92 90 93 94 96 96 96
85 62 61 71 78 70 64 66 67 62 64 52 68 80 85 78 70 68 60 64 59 63 62 75 63 62 59 60 60 56 53 56 53 53 54 76 82 87 88 90 91 91 92 93
70 57 61 70 76 75 55 54 54 60 51 70 77 76 79 76 64 62 58 62 70 78 74 71 68 64 70 64 59 60 58 54 55 53 54 56 55 67 77 82 88 90 91 88
72 73 80 64 46 52 58 53 55 55 62 67 70 74 74 68 64 61 56 59 70 85 79 74 67 67 65 63 62 67 67 59 57 56 56 55 55 60 68 68 78 84 87 84
92 69 60 52 44 55 74 58 48 60 72 77 76 71 81 67 60 61 58 58 58 62 76 76 75 66 66 73 69 69 81 83 68 63 61 63 66 67 66 70 75 82 81 82
93 84 75 52 54 60 62 62 66 68 73 76 70 75 73 71 67 63 54 50 48 48 52 55 63 64 67 78 83 80 77 82 85 76 81 80 77 78 70 66 80 78 83 84
83 83 60 53 61 61 76 70 70 69 68 69 67 69 77 67 70 57 45 43 43 45 52 55 54 56 65 63 80 76 64 61 72 77 81 81 84 75 80 78 78 86 85 86
76 84 79 66 69 76 73 71 72 70 70 70 77 82 78 72 72 50 44 39 36 42 52 57 54 51 58 62 55 53 55 58 56 56 62 65 77 77 76 78 83 84 80 81
64 62 69 75 75 72 73 71 72 70 68 71 82 85 84 83 72 53 35 28 30 38 52 57 57 55 55 58 52 52 50 50 46 43 48 55 64 69 70 70 72 73 73 80
74 73 71 77 78 81 76 73 71 68 72 77 82 77 73 64 56 47 33 28 29 39 51 60 58 57 59 56 48 48 49 44 41 45 46 48 48 48 59 63 65 66 71 77
89 78 78 74 78 82 80 74 74 71 71 72 70 66 59 60 66 43 34 30 30 36 48 58 59 60 55 52 46 46 47 44 42 44 43 41 43 54 54 67 59 65 74 76
79 70 71 77 84 82 83 81 77 77 74 67 61 64 66 84 61 43 38 32 32 34 47 57 59 60 58 49 45 45 45 45 50 49 50 48 45 43 58 63 60 60 59 70
73 78 88 97 87 78 83 81 79 77 66 63 55 63 76 76 55 51 36 33 33 36 44 56 61 66 66 58 53 58 56 52 56 59 57 59 64 68 69 66 65 68 72 67
73 82 94 90 89 77 75 76 79 76 58 60 63 66 71 58 54 45 40 38 38 41 46 56 66 81 82 80 79 82 80 82 75 78 81 82 82 85 86 88 88 85 78 76
83 73 73 79 79 77 76 78 85 80 72 71 66 67 60 62 59 57 50 43 49 64 72 76 78 84 76 72 74 78 70 78 83 84 87 89 88 86 85 83 84 83 78 74
80 81 84 85 82 81 81 79 83 81 76 76 73 65 59 56 59 57 50 53 55 62 64 81 79 85 83 82 78 75 79 81 83 84 86 85 85 84 82 82 80 82 82 86
90 95 92 91 88 90 85 79 78 81 85 87 86 83 80 82 82 85 86 83 87 88 87 86 91 92 92 91 82 80 78 74 87 78 81 82 82 82 81 82 82 80 82 86
72 74 77 78 86 89 85 81 81 84 90 88 87 90 90 85 81 88 89 92 94 95 92 92 93 90 89 87 80 72 71 72 74 77 75 82 77 75 78 76 75 77 78 71
74 79 80 79 82 80 78 83 86 88 92 93 91 90 88 90 88 88 90 92 92 91 92 92 84 84 82 79 65 65 72 76 72 71 72 78 78 71 77 80 80 81 76 75
84 84 83 84 78 76 90 92 93 94 94 91 91 90 89 92 91 92 91 87 79 75 88 84 74 74 70 71 73 62 72 77 69 78 82 74 83 87 84 79 76 80 83 83
94 91 90 89 91 92 90 92 93 95 94 89 86 87 86 90 90 94 92 78 93 91 84 81 74 71 63 65 62 78 82 85 84 81 83 87 86 84 84 84 83 84 86 87
94 93 94 93 92 95 95 94 92 94 92 91 90 89 90 92 94 94 91 77 83 86 76 76 72 79 71 73 68 83 76 76 78 78 82 85 86 86 86 85 86 87 88 88
94 93 92 92 92 93 92 91 93 91 91 90 87 86 81 74 78 86 90 83 81 86 77 81 88 90 89 87 87 86 83 82 82 85 88 90 88 88 86 86 86 86 88 87
93 91 93 92 92 86 90 90 84 84 90 88 88 87 77 84 90 79 80 88 91 90 88 90 91 90 86 91 90 88 86 85 86 89 86 94 89 89 88 89 87 86 86 86
90 92 92 92 84 80 78 74 72 70 72 67 70 72 72 74 86 90 92 92 91 85 89 92 90 90 90 91 91 89 87 87 90 90 90 91 91 91 89 87 88 88 88 88
83 83 81 78 78 77 76 72 74 72 71 84 86 93 93 90 90 90 91 90 85 86 88 90 89 89 90 90 93 90 89 85 89 90 92 90 89 86 88 88 89 89 91 91
87 88 86 86 82 79 74 75 81 81 80 88 91 94 91 94 93 90 93 92 91 91 92 91 87 85 86 91 92 92 90 91 96 89 90 89 88 90 91 91 92 92 91 91

GFSNGP_sfc_rhum_144.txt.gz
RH
40 36 38 40 44 40 38 42 57 66 47 37 34 38 40 52 72 70 76 65 76 86 91 82 64 55 45 43 43 40 42 48 77 99 97 89 91 91 92 92 94 89 90 92
84 44 42 52 71 48 46 45 47 42 46 33 34 51 63 65 64 58 57 54 50 52 51 58 45 43 42 42 45 41 39 42 41 41 41 67 74 78 74 86 88 88 90 88
49 32 39 55 73 73 43 32 36 46 38 33 43 51 63 65 57 55 51 51 56 69 60 56 50 48 51 45 45 45 43 41 40 40 41 44 44 49 58 59 78 82 85 82
50 44 70 49 29 28 32 31 30 31 30 28 43 58 63 58 55 53 48 50 67 88 72 60 51 49 49 46 47 56 56 47 45 44 44 44 46 47 54 53 58 64 72 67
68 48 41 33 28 32 38 40 33 43 40 53 56 58 70 57 50 51 49 48 52 57 76 68 60 49 51 59 54 57 74 76 59 55 52 54 56 55 53 58 62 72 67 70
63 79 63 32 27 39 40 54 47 48 52 58 55 63 64 61 54 52 46 41 40 39 40 42 47 47 52 68 74 72 69 76 79 67 75 71 69 72 62 56 75 69 76 76
70 68 45 27 40 44 70 64 53 50 51 55 58 63 65 55 60 50 38 36 35 34 34 36 37 40 44 49 73 64 49 47 59 71 75 79 78 67 75 73 71 76 78 78
56 66 68 42 55 58 56 57 54 53 55 66 57 66 64 63 69 43 35 32 28 33 36 36 33 33 36 41 38 37 41 38 39 45 51 51 66 66 68 71 73 73 74 74
43 42 43 48 45 42 52 50 51 64 53 58 67 83 90 86 67 44 30 23 21 26 36 38 34 31 36 40 37 38 33 32 33 36 38 38 46 54 56 58 62 64 62 69
58 58 38 37 39 51 52 64 58 54 57 60 72 72 71 63 53 39 23 18 19 28 33 39 39 38 38 38 35 34 31 28 29 31 29 32 34 35 44 52 54 56 62 68
63 50 47 45 48 54 60 62 61 55 56 62 61 60 54 50 45 37 25 20 22 28 33 37 37 38 38 36 34 31 30 28 30 32 32 29 38 44 45 62 56 59 67 69
74 50 52 57 58 64 69 66 58 60 62 56 53 53 49 52 54 36 28 22 21 27 33 37 38 38 37 34 32 32 29 32 41 39 39 37 36 38 60 60 62 64 62 69
53 43 66 90 71 66 69 64 59 59 56 57 52 49 53 67 48 42 29 23 22 28 34 37 41 45 46 42 40 41 43 41 45 49 48 50 54 56 60 61 59 64 67 69
31 43 68 66 65 63 60 59 64 56 52 50 50 55 65 58 49 40 30 24 23 26 36 41 52 74 76 72 72 75 73 72 64 67 68 69 70 73 72 74 76 74 65 65
37 49 51 56 59 62 58 62 68 61 55 55 55 66 60 56 54 42 33 29 31 41 55 64 71 77 70 69 68 71 64 70 74 74 74 74 73 72 71 69 69 69 66 62
45 56 59 64 62 63 65 66 65 62 60 59 59 59 54 52 47 44 36 36 41 48 51 67 69 74 71 68 70 71 72 74 69 71 73 71 70 68 65 66 64 66 66 72
68 75 70 70 70 70 69 64 63 66 69 73 78 74 67 67 66 64 67 66 75 74 76 78 84 87 86 84 77 72 69 64 71 62 65 65 66 65 64 66 66 65 68 76
52 54 60 62 69 71 71 66 66 68 80 80 81 85 86 84 76 81 80 82 85 83 78 81 84 87 83 80 70 59 57 56 57 60 57 66 62 57 62 62 60 63 65 60
57 61 63 65 66 70 72 72 74 78 88 91 91 88 83 78 80 81 83 87 87 86 86 86 80 74 72 70 50 50 56 61 55 53 56 60 66 59 65 69 68 70 68 68
64 66 66 69 70 76 92 96 92 93 92 89 88 90 88 87 84 86 83 81 72 64 80 75 66 61 60 62 51 47 59 65 54 63 73 64 74 76 74 66 68 73 78 77
100 99 100 98 97 98 95 92 94 94 93 91 89 88 85 86 84 82 83 71 84 81 72 74 62 56 50 50 46 67 71 74 74 70 74 77 77 73 75 77 77 78 79 79
100 99 96 94 92 94 92 90 90 93 92 89 88 88 88 88 86 80 74 60 67 82 66 63 58 64 59 60 56 73 64 65 68 69 73 75 77 79 79 78 79 80 79 80
97 94 92 92 91 92 89 89 90 89 90 87 86 83 73 62 60 68 73 68 67 75 67 72 80 79 77 79 79 78 76 74 74 75 77 80 80 80 79 79 80 80 81 80
94 90 90 88 86 81 85 88 79 80 84 82 81 80 65 71 74 56 59 74 78 84 85 86 85 80 77 83 81 80 78 78 78 79 74 87 80 80 79 80 80 80 80 79
88 87 85 84 74 71 69 65 63 62 65 58 60 61 55 55 77 75 84 86 89 82 88 85 82 80 83 82 80 80 79 79 80 79 79 80 80 81 81 80 82 82 83 81
74 70 69 66 64 61 60 59 62 64 62 77 72 76 80 78 79 82 85 85 83 84 84 87 85 83 82 78 79 79 77 72 77 77 80 78 79 78 81 80 82 82 83 83
73 74 69 69 64 63 64 66 76 75 75 83 81 82 80 88 88 84 88 90 89 88 88 87 84 78 77 79 78 78 77 78 87 76 79 80 80 82 82 83 83 83 83 83

GFSNGP_sfc_rhum_147.txt.gz
RH
27 25 25 26 30 30 31 34 45 54 34 27 24 28 28 38 51 70 77 66 73 79 84 81 53 44 36 36 37 34 36 41 67 99 100 100 100 99 89 87 92 86 86 88
71 37 30 37 53 33 33 35 37 34 35 23 21 35 38 50 54 57 57 53 53 55 54 50 37 34 36 37 40 36 35 38 37 38 38 61 63 70 62 82 82 83 81 79
48 25 25 40 81 60 31 26 27 33 26 23 28 32 45 51 52 59 56 50 51 53 49 46 41 39 42 38 41 41 38 38 38 40 41 43 42 46 52 56 69 75 76 73
45 38 58 42 25 21 24 22 19 20 38 34 41 42 51 50 50 50 45 46 62 89 67 49 43 42 42 38 42 51 52 45 44 44 45 44 45 46 51 51 54 56 63 59
56 43 33 25 22 24 29 31 23 33 32 34 43 47 59 51 46 47 44 45 53 61 76 56 47 41 45 50 46 51 68 73 55 53 51 52 54 52 50 54 59 70 64 67
54 62 57 29 20 24 29 44 37 35 41 44 40 60 95 64 47 47 42 40 40 40 39 39 41 40 46 60 70 60 60 68 77 62 72 66 62 66 56 52 67 67 72 76
58 61 42 22 28 30 52 62 48 42 42 44 55 62 60 49 54 47 37 34 33 31 28 28 30 34 38 45 70 52 40 39 50 63 79 81 77 60 70 67 66 78 82 85
53 59 60 22 35 44 38 37 37 39 45 59 60 74 70 56 62 41 34 31 28 28 28 27 26 27 27 32 29 30 31 33 36 39 40 40 56 60 60 66 76 75 74 76
32 40 36 37 38 32 31 37 42 47 50 61 60 78 82 87 62 40 30 26 23 24 29 28 24 24 27 32 28 29 26 28 29 28 29 31 38 46 54 54 59 63 62 69
48 44 32 31 30 29 30 43 46 48 48 59 76 71 71 64 51 39 26 22 19 24 28 31 29 28 29 31 27 27 26 26 26 27 26 29 29 33 45 54 55 56 64 68
51 38 35 34 34 42 40 41 51 49 48 51 55 59 57 52 45 34 26 22 20 23 28 30 28 30 30 28 28 26 26 26 29 30 29 28 37 40 42 63 59 62 69 72
69 44 48 44 44 45 50 50 49 50 53 49 50 53 50 48 43 34 30 23 21 24 28 27 28 29 29 28 27 27 27 31 42 38 38 36 37 43 60 61 62 61 63 69
41 32 48 66 54 49 52 54 51 51 49 50 46 45 44 46 44 46 29 24 22 25 28 30 31 34 34 36 34 37 38 38 42 48 46 49 52 54 59 70 63 65 61 63
25 28 37 30 39 46 50 50 54 47 46 46 44 44 47 55 49 38 34 26 21 25 30 32 40 72 73 70 71 74 72 69 61 64 66 66 68 70 71 72 75 75 77 63
26 24 26 26 39 46 48 50 56 53 50 49 47 51 61 60 50 43 33 25 24 32 45 56 69 76 67 66 68 70 59 67 72 72 72 70 70 68 67 66 67 67 63 59
23 25 30 43 48 49 52 55 58 57 55 52 56 64 62 51 49 40 32 27 31 41 47 69 68 72 67 65 71 71 74 71 63 68 69 66 65 64 61 62 61 64 64 73
33 38 52 54 56 55 58 59 60 58 59 64 77 75 63 69 70 68 66 64 73 72 76 75 82 82 80 73 74 67 66 60 63 57 60 60 61 60 59 61 62 62 64 76
27 36 46 51 57 62 63 64 63 60 66 68 79 86 82 79 73 77 77 80 82 83 76 78 82 86 81 77 69 55 54 52 52 55 52 61 57 52 59 60 57 60 62 58
31 41 49 52 56 61 64 66 68 70 85 90 88 87 85 82 80 81 81 85 84 82 81 80 78 71 67 67 49 47 51 56 51 46 53 56 62 56 62 67 66 67 65 66
46 52 57 63 62 65 88 98 99 96 96 90 89 89 86 85 84 85 82 79 70 62 75 70 62 55 57 59 51 43 54 62 49 59 70 61 71 74 70 61 64 70 75 75
100 97 100 100 100 100 100 98 96 93 90 90 90 89 89 86 85 85 81 67 85 77 66 67 57 54 47 49 43 62 67 71 70 66 70 74 74 70 72 74 74 76 77 77
100 100 100 100 100 100 100 98 94 91 91 90 89 90 91 87 85 78 75 60 66 70 64 59 55 56 54 57 51 70 61 62 65 68 70 72 74 76 76 75 76 77 77 78
100 99 99 96 96 96 92 92 92 90 91 92 91 89 79 68 64 69 69 60 61 68 61 69 79 75 72 76 75 74 72 70 71 72 74 76 76 77 76 76 77 78 78 78
95 91 94 92 90 84 91 91 82 83 87 85 84 84 67 72 71 51 52 63 69 78 89 87 82 77 74 80 77 76 74 74 74 75 70 91 77 76 75 76 76 76 77 76
92 92 89 85 74 72 70 64 62 63 64 59 62 60 56 54 75 70 78 84 86 81 86 84 79 77 80 79 76 75 75 75 77 76 75 76 76 77 76 76 78 78 79 78
72 69 67 60 60 59 57 56 61 62 61 75 72 76 76 74 80 80 84 81 81 84 85 87 84 81 79 75 75 74 72 70 75 73 77 74 74 74 76 75 78 78 78 79
64 69 61 61 56 56 57 60 72 74 76 83 81 88 85 89 88 82 85 87 87 87 87 87 83 76 76 76 74 73 72 74 84 73 75 76 76 77 78 78 79 79 79 80

GFSNGP_sfc_rhum_150.txt.gz
RH
22 20 22 23 25 27 26 29 42 49 35 30 28 29 34 46 80 87 85 78 78 82 87 84 64 54 41 43 44 42 45 54 83 99 99 99 99 98 90 84 82 82 80 80
67 35 28 32 44 26 28 32 35 33 36 26 24 34 43 56 55 67 67 61 60 64 72 59 41 36 36 42 46 42 43 46 46 47 48 70 75 78 72 83 81 80 81 78
56 30 25 40 62 55 29 25 27 35 29 40 49 40 51 52 52 53 55 61 71 66 56 48 44 40 47 43 47 47 45 43 45 48 50 53 52 56 65 67 74 78 78 76
54 42 60 43 20 21 23 22 20 19 19 38 56 43 54 53 50 54 56 54 63 86 68 55 49 49 49 42 50 60 58 51 50 51 53 54 56 56 64 64 68 71 77 72
63 49 35 25 21 24 28 30 23 24 31 34 34 39 60 50 47 50 48 52 58 68 76 63 56 48 52 57 53 58 79 80 59 59 60 62 65 65 62 67 74 81 78 79
56 58 56 35 20 24 27 45 35 37 43 42 39 64 76 68 61 51 44 44 53 56 51 46 47 47 58 69 77 69 70 80 86 72 79 78 74 77 71 65 77 83 84 85
65 62 41 23 21 27 51 57 45 40 39 46 59 63 66 56 55 49 41 41 42 42 40 37 36 40 49 58 79 60 44 48 66 73 88 88 85 74 82 81 79 85 86 87
58 63 65 25 31 44 41 37 32 33 42 54 58 66 66 65 66 44 38 35 34 34 32 31 30 32 32 35 32 32 34 41 42 48 43 45 70 73 74 80 87 87 83 84
43 51 50 42 50 42 34 35 40 44 43 49 67 84 86 86 68 44 34 33 29 29 31 29 25 25 29 32 28 27 29 32 36 36 36 39 50 59 68 70 75 76 79 84
52 43 30 34 30 30 31 39 38 41 48 54 70 74 75 67 59 44 32 29 25 28 30 32 29 27 33 30 27 27 30 33 36 36 38 37 36 47 58 66 69 71 81 88
53 42 34 30 33 39 42 40 38 44 46 50 59 72 66 62 53 40 30 26 24 29 33 32 29 32 30 29 27 26 30 34 41 44 41 42 48 55 57 76 65 76 85 87
78 55 52 48 48 46 45 44 42 43 50 48 49 60 57 59 50 38 31 28 26 27 31 28 29 31 31 29 27 32 38 42 54 52 53 49 50 64 63 71 63 63 63 79
43 36 44 56 49 36 43 43 44 49 47 51 49 52 52 52 46 46 32 28 28 30 31 32 34 38 43 49 49 53 46 45 56 60 58 62 68 70 82 78 66 63 65 63
27 28 35 29 34 32 31 43 52 47 46 48 48 49 54 51 50 46 38 32 27 29 35 38 57 83 84 81 84 87 83 75 79 83 86 86 87 90 91 92 93 96 84 72
31 28 29 26 25 24 44 48 53 54 51 53 52 55 57 62 60 50 44 38 38 43 59 73 82 87 77 78 79 81 70 83 90 90 91 88 91 90 90 88 89 90 88 83
26 24 23 27 26 32 48 52 58 60 62 61 60 62 66 63 53 48 41 35 37 48 54 79 80 83 81 82 86 85 86 78 76 88 89 87 88 86 84 85 84 86 89 89
37 38 34 36 44 50 54 59 62 69 68 70 77 76 72 71 77 80 83 84 83 87 85 85 92 93 91 88 88 82 82 78 73 77 80 81 83 82 82 86 88 86 89 90
32 33 32 34 55 67 70 73 73 70 72 78 81 87 84 76 78 83 87 86 88 88 86 89 91 94 93 91 85 69 70 65 64 71 66 79 74 71 81 80 76 79 84 80
35 32 34 49 57 69 71 73 75 73 87 88 87 86 82 82 83 87 90 90 90 90 93 89 87 83 76 77 58 57 65 68 60 59 67 73 86 77 84 85 84 87 84 86
48 51 61 68 73 73 87 94 92 92 89 88 89 88 89 88 87 89 90 88 80 74 85 80 71 62 62 64 64 56 66 74 56 76 84 81 89 91 89 78 84 87 91 90
99 100 100 100 100 99 97 93 93 95 92 89 89 90 90 89 88 88 89 77 90 83 75 77 67 63 54 56 53 76 82 86 86 84 86 90 90 87 89 90 90 91 91 92
100 100 100 99 98 98 98 95 91 94 93 92 89 89 94 94 91 86 83 78 78 80 71 68 62 67 62 67 62 83 74 75 81 85 88 89 89 90 91 91 92 90 90 92
100 98 98 97 96 98 97 95 93 91 90 92 94 93 88 83 78 79 79 76 72 77 68 81 84 83 81 87 88 87 85 85 86 86 89 91 90 92 91 91 90 91 92 91
96 92 96 94 92 92 95 96 90 91 92 91 91 88 81 82 80 66 69 75 77 82 94 90 89 87 89 90 89 89 88 85 87 89 90 93 92 91 90 91 92 91 92 90
92 92 89 90 84 87 84 79 78 79 80 76 77 74 68 67 82 80 82 84 92 89 92 92 88 88 90 89 88 88 88 90 92 90 90 90 90 92 91 92 92 92 93 92
82 82 78 72 73 71 68 67 72 72 70 83 80 82 83 90 90 89 90 89 89 88 90 92 90 91 89 87 86 86 86 85 88 91 90 88 89 89 90 91 91 91 93 93
72 74 66 67 62 63 65 68 77 78 81 88 88 92 94 94 93 90 89 92 92 92 92 93 90 88 89 86 86 84 86 92 99 90 89 90 90 91 92 91 92 93 93 94

GFSNGP_sfc_rhum_153.txt.gz
RH
46 44 36 35 40 44 41 46 58 64 51 46 40 46 76 91 94 94 94 88 90 96 96 90 83 76 64 55 58 61 70 82 93 98 98 99 99 98 93 91 87 93 85 84
74 42 40 43 52 45 37 38 41 39 44 36 52 57 71 84 87 90 86 81 80 82 84 80 66 57 48 52 56 53 56 61 61 63 63 80 81 90 84 94 93 87 92 85
74 41 43 59 60 51 36 33 38 48 39 60 68 67 74 72 73 76 76 74 77 84 83 74 53 52 62 58 62 62 60 58 61 63 64 69 68 74 82 84 90 88 87 84
75 64 80 57 30 27 32 31 28 28 46 63 61 71 73 71 70 66 67 74 83 88 76 66 62 58 60 62 69 76 77 66 66 68 70 71 74 75 80 84 88 86 83 77
80 74 56 42 30 33 37 38 31 48 50 49 52 75 79 70 66 71 73 74 76 77 77 73 67 68 71 72 76 78 86 88 77 76 77 80 80 83 80 86 91 94 85 82
83 77 76 53 29 31 35 66 50 51 53 60 63 88 94 82 74 68 65 67 68 68 61 61 63 66 75 78 84 86 85 86 90 83 84 84 84 85 83 82 92 86 86 91
75 76 67 36 26 38 67 72 55 49 54 62 78 84 85 77 70 61 59 63 62 62 58 53 52 62 72 75 82 77 75 76 75 86 93 91 90 84 88 88 87 94 94 94
76 79 80 37 39 57 61 62 55 54 60 69 76 80 82 76 70 54 52 57 53 55 52 47 45 53 62 68 58 48 54 58 54 56 55 63 80 81 80 88 91 94 91 93
57 72 62 63 62 55 51 49 56 61 64 70 82 88 86 86 74 52 45 45 41 39 40 41 39 42 41 43 38 43 47 48 48 46 46 60 68 74 86 83 88 86 88 93
71 59 57 56 53 50 53 54 57 60 63 66 86 91 91 81 69 48 41 43 37 38 39 40 39 38 40 41 39 42 45 46 44 50 50 50 58 61 74 85 88 80 90 97
73 64 56 50 52 60 55 54 58 58 59 61 83 83 76 65 59 43 36 37 36 39 44 41 41 43 39 38 40 38 45 50 55 56 58 61 66 76 67 90 79 90 98 98
88 64 68 66 62 57 57 56 53 59 65 60 82 80 73 72 64 49 39 36 37 40 42 39 42 43 42 39 39 47 54 57 68 66 66 65 67 81 69 76 66 65 66 89
55 48 55 61 62 52 52 59 57 61 61 64 65 69 68 68 60 54 37 36 38 43 44 42 50 65 74 74 67 61 65 61 77 75 78 81 88 85 93 82 67 72 67 62
45 47 51 45 51 41 48 53 61 60 60 64 64 64 65 62 60 48 42 41 40 43 50 67 74 90 91 88 82 85 88 88 93 95 97 96 96 96 97 97 98 98 78 71
45 42 43 40 38 35 54 64 67 69 67 68 70 69 67 67 66 60 53 46 49 61 79 83 88 94 89 86 87 92 84 96 96 97 94 92 96 95 96 95 96 97 97 89
42 42 40 44 41 37 58 70 73 75 75 76 78 75 73 68 62 56 52 55 60 76 79 87 88 91 89 91 90 92 92 88 87 96 96 95 96 95 94 94 95 98 97 94
54 55 51 50 50 70 71 75 75 80 81 79 82 80 74 75 80 80 84 83 80 86 88 88 92 92 91 91 94 97 95 92 85 95 90 90 94 94 93 94 95 98 97 94
41 44 50 51 54 77 82 82 85 82 80 82 82 85 84 79 82 89 92 90 90 94 94 93 92 92 96 95 94 89 90 86 82 86 84 88 88 89 89 89 92 95 98 94
75 68 58 46 62 81 83 86 86 86 87 86 87 87 84 85 86 90 90 87 89 96 100 96 90 93 91 92 76 80 84 86 77 80 81 82 94 94 91 93 96 98 98 97
97 85 82 85 84 84 91 89 89 92 91 89 89 88 88 90 90 90 87 86 85 91 93 90 83 82 82 77 78 83 89 92 84 91 93 97 96 97 98 94 95 99 100 100
97 98 98 96 96 92 91 90 93 97 94 87 87 89 89 93 92 90 90 86 94 92 87 86 84 75 71 71 78 92 93 95 96 95 97 98 98 97 99 99 100 100 100 100
97 98 98 97 98 98 96 95 94 93 92 93 92 92 93 96 94 90 88 86 90 88 84 83 77 77 72 83 87 93 92 94 94 96 97 97 98 100 100 100 99 100 100 100
98 98 98 98 98 98 96 95 94 92 93 92 93 93 92 90 88 88 88 86 81 86 84 92 84 81 87 94 93 92 92 93 94 96 97 98 98 99 100 99 99 100 100 99
98 98 98 97 94 94 98 98 94 93 95 94 95 90 88 94 92 84 88 86 87 94 91 88 85 91 95 95 95 93 94 96 95 97 93 95 100 99 99 100 100 100 99 99
97 97 96 94 92 94 92 92 92 92 91 89 90 89 81 79 90 93 89 94 94 93 94 92 92 96 95 95 93 97 98 96 98 98 99 99 100 99 100 100 100 98 98 100
93 94 91 90 91 89 89 88 92 92 91 97 96 96 96 94 91 93 93 94 93 92 94 96 97 99 97 95 94 97 94 89 96 98 97 99 97 98 99 99 99 100 100 100
93 93 92 86 85 83 84 86 90 91 91 92 92 97 96 95 95 93 94 95 95 95 94 97 98 96 94 95 92 95 98 99 98 99 100 98 98 100 100 100 100 100 100 100

GFSNGP_sfc_rhum_159.txt.gz
RH
58 46 40 41 42 56 60 58 65 66 67 52 48 59 54 78 96 97 97 96 92 95 94 94 93 83 81 86 90 92 84 86 91 99 94 98 95 95 95 94 95 94 93 92
70 55 51 51 62 50 46 48 53 48 54 44 52 82 89 90 91 93 94 92 89 83 86 84 82 84 79 82 90 89 84 83 78 88 96 92 88 91 82 93 94 92 92 94
94 55 50 73 71 59 41 39 36 38 31 75 85 79 82 88 89 90 94 93 90 88 88 87 82 74 72 72 74 74 76 74 74 74 80 83 80 82 85 86 91 93 91 89
93 80 96 68 45 36 38 32 31 36 55 68 70 72 76 83 84 87 88 92 94 94 91 85 84 74 78 73 76 79 81 78 78 76 76 76 79 83 87 86 87 86 88 81
92 73 60 52 44 39 42 42 36 39 53 68 74 71 79 72 77 83 88 92 92 91 91 85 79 76 78 81 82 81 86 84 78 78 76 78 80 90 90 90 85 86 84 90
83 74 79 60 36 31 38 55 50 60 69 77 71 82 87 74 77 84 85 87 91 87 72 73 79 76 77 84 88 88 84 88 89 83 84 84 86 91 94 91 88 83 81 93
87 88 70 48 36 40 60 64 62 61 64 76 76 70 66 82 82 84 84 84 78 66 66 71 74 73 80 78 82 81 76 79 83 89 92 93 92 90 96 95 89 97 92 95
91 92 88 46 44 52 55 66 63 64 71 74 71 80 88 87 88 78 77 75 66 63 69 71 68 69 77 77 71 71 75 75 77 81 63 70 87 90 89 94 96 97 93 92
71 78 58 59 54 55 64 68 69 66 68 70 78 87 92 90 88 78 73 66 60 62 68 69 65 64 71 69 68 70 74 65 68 68 62 66 75 83 90 91 96 88 86 97
67 62 52 54 65 58 56 58 64 65 70 77 75 82 91 88 84 77 69 62 61 64 66 71 67 62 59 61 62 69 63 53 63 62 59 59 57 63 80 95 94 82 89 97
78 67 62 64 64 62 65 64 66 71 72 72 75 86 88 78 73 70 66 61 61 63 64 63 64 65 61 59 56 52 46 47 56 62 64 65 65 79 75 96 78 89 96 97
85 65 65 65 71 75 77 77 67 68 76 74 78 83 85 77 68 62 63 56 54 55 57 55 56 60 56 55 49 45 47 50 57 63 68 74 83 92 72 83 70 66 69 93
62 61 68 61 60 66 70 68 68 71 69 73 81 88 88 86 68 59 55 50 50 50 51 52 51 53 55 51 49 50 53 57 68 67 75 86 90 88 98 87 77 73 63 63
52 56 63 55 54 48 60 58 64 65 66 74 80 87 88 84 66 57 53 49 46 48 52 52 54 76 81 72 73 83 85 85 88 95 97 96 96 97 98 99 99 100 78 78
58 58 56 53 53 50 51 51 62 74 79 83 90 88 85 84 67 59 60 52 49 55 64 69 76 88 86 77 76 83 82 95 95 97 97 97 98 99 98 99 98 98 95 94
56 60 61 66 63 60 59 60 69 74 86 86 90 91 85 79 70 62 58 56 57 62 66 72 75 86 86 83 90 92 93 95 93 95 97 97 96 96 97 98 97 94 97 97
71 69 67 69 66 65 61 64 72 78 85 88 88 91 88 81 80 80 81 76 74 77 79 79 84 91 90 88 88 93 95 94 93 92 94 94 95 95 97 97 95 96 99 100
65 66 70 65 60 69 70 70 77 84 86 84 89 87 86 80 75 82 86 91 92 93 89 89 88 91 92 91 85 85 88 88 91 88 88 95 95 93 96 95 92 97 100 98
92 95 97 98 91 79 73 72 84 86 90 88 89 88 84 82 81 85 89 88 88 89 96 90 89 89 86 90 80 81 84 89 89 89 86 97 97 96 97 97 98 99 98 99
96 93 94 97 94 93 89 87 90 92 92 89 90 88 90 89 86 87 84 84 81 78 91 88 82 81 83 87 93 89 87 91 89 93 96 97 97 98 99 99 98 100 100 100
96 96 99 99 99 99 98 94 91 92 94 89 86 87 88 90 87 86 86 83 97 89 85 85 81 86 80 82 82 92 91 94 92 94 94 97 97 97 98 99 99 100 100 100
95 97 98 99 97 99 99 96 93 92 91 95 96 93 94 96 89 91 90 75 90 88 85 85 86 84 79 85 83 91 89 90 91 95 96 97 97 98 100 100 100 100 100 100
98 98 94 99 99 99 98 97 96 94 95 94 95 96 94 81 76 79 90 86 88 89 86 90 89 88 89 92 92 93 92 92 94 94 95 96 96 98 99 100 100 100 100 100
99 99 99 98 98 95 96 98 96 96 96 96 96 90 82 87 95 91 87 90 90 90 92 93 89 89 90 93 94 94 94 94 95 96 96 96 100 100 100 100 100 100 100 100
98 99 98 98 95 97 96 96 95 94 91 87 87 86 80 77 93 97 94 94 93 93 94 90 87 90 92 94 93 93 94 94 95 94 96 98 100 100 100 100 100 100 100 100
96 96 95 91 92 93 94 90 95 95 92 97 98 99 98 97 96 96 95 94 93 93 93 93 92 93 93 92 92 93 94 93 94 97 98 99 100 99 100 100 100 100 100 100
96 97 97 95 92 92 93 94 96 97 95 95 96 97 97 98 97 96 96 95 95 95 94 95 94 92 93 94 95 95 95 97 98 98 99 100 100 99 99 100 100 100 100 100

GFSNGP_sfc_rhum_162.txt.gz
RH
93 83 74 78 52 52 57 57 65 61 68 52 57 67 72 74 87 96 96 92 94 96 95 94 94 86 84 86 88 86 84 88 93 97 98 96 95 95 95 93 94 94 94 93
92 78 79 78 74 62 52 57 64 54 60 50 54 63 70 69 94 96 92 91 87 87 88 89 83 74 79 86 89 90 84 84 86 91 90 91 87 88 80 92 94 93 93 94
88 62 72 98 91 86 50 44 46 51 42 55 68 65 66 84 86 90 92 95 95 92 87 82 84 78 84 87 91 90 87 82 86 95 88 85 83 78 79 82 89 92 94 91
93 93 96 72 55 46 43 36 36 32 42 60 54 71 80 82 81 84 85 93 95 93 88 85 85 84 80 85 87 82 80 78 79 82 83 82 82 78 82 79 84 84 89 86
97 95 74 56 47 48 47 43 41 40 42 64 80 73 80 80 79 76 84 91 94 90 91 91 84 79 77 82 80 80 84 82 76 76 78 80 87 89 86 83 82 88 83 89
97 95 92 60 39 34 35 51 37 40 57 83 72 87 89 74 77 86 88 93 95 94 88 84 82 75 76 85 86 85 82 86 89 82 83 85 88 96 90 86 81 81 78 92
96 95 76 54 42 40 53 56 56 61 74 77 72 69 65 75 83 86 92 94 89 80 79 78 76 72 77 83 87 83 78 80 85 89 91 92 94 96 94 90 86 93 89 94
97 97 91 51 49 46 54 61 63 70 76 71 73 79 83 85 89 86 89 90 78 76 76 79 73 69 77 78 78 78 77 79 84 84 72 79 92 95 92 93 94 95 90 92
83 82 63 52 45 50 52 53 69 72 74 73 77 84 88 89 89 84 84 81 69 72 78 78 73 68 76 75 72 76 76 79 78 64 66 71 83 91 93 91 96 89 87 96
76 62 52 53 67 61 62 66 66 62 72 72 71 82 88 90 89 84 80 75 67 71 75 79 73 67 69 70 67 70 71 69 77 65 63 63 60 67 85 91 92 81 89 96
79 67 66 60 62 63 60 64 67 69 68 66 74 81 85 88 85 79 76 68 65 68 70 73 70 68 65 66 67 66 57 60 67 57 58 63 68 78 75 95 75 85 95 96
85 65 72 67 69 72 68 68 70 73 82 80 79 75 85 84 82 76 75 71 68 68 66 65 69 68 62 63 63 60 52 56 66 65 67 70 80 93 70 82 69 68 70 94
61 58 72 62 60 79 76 73 77 78 68 72 76 78 85 89 79 76 74 72 72 70 63 64 68 68 63 61 56 51 52 51 66 68 75 88 89 91 97 84 74 67 65 62
62 63 65 59 57 53 65 63 69 72 72 75 73 88 89 89 80 73 72 66 63 60 60 61 65 75 75 69 66 74 75 73 76 85 89 94 96 97 97 97 98 98 85 82
60 62 58 55 57 52 54 56 58 63 65 76 85 87 91 90 80 70 66 60 56 60 66 70 75 86 78 72 74 79 76 91 93 95 94 93 97 97 97 98 96 96 96 95
57 64 66 71 67 66 68 66 66 66 71 79 86 92 88 88 81 73 62 58 59 65 66 71 75 84 81 77 83 87 90 94 92 95 97 97 97 97 99 98 96 96 95 98
71 70 68 71 71 70 70 71 72 72 72 84 86 92 93 90 85 82 80 77 80 77 77 78 83 88 85 83 82 90 92 93 92 92 94 94 95 96 97 98 98 97 98 100
67 73 81 80 84 84 79 75 76 74 78 79 93 93 91 86 82 83 85 89 89 92 90 88 86 88 88 88 86 88 90 88 88 90 92 96 95 94 97 96 93 95 99 97
92 96 94 91 93 98 97 91 82 78 87 92 94 91 88 88 86 86 88 86 85 87 96 90 86 84 85 87 81 85 90 91 88 88 89 96 97 96 97 96 96 98 97 98
92 90 89 90 93 99 98 94 93 88 91 93 94 94 94 92 88 87 83 83 80 78 90 86 77 76 84 82 82 84 89 92 90 93 95 96 96 98 98 98 96 99 100 100
90 94 96 95 96 97 99 98 98 97 98 94 92 93 93 92 86 85 85 85 96 90 84 83 76 80 84 92 84 88 92 94 93 92 93 96 97 97 98 98 98 100 100 100
96 98 97 98 99 99 99 98 96 96 94 93 92 90 91 94 94 96 96 89 89 87 82 80 83 84 88 91 93 93 90 91 93 93 95 96 95 97 98 98 100 100 100 100
97 98 98 98 99 99 98 98 98 97 98 95 94 95 95 90 89 94 93 86 86 86 83 89 90 89 87 92 94 93 92 92 93 94 94 96 95 96 97 99 100 100 100 100
99 99 99 98 98 97 97 98 96 96 97 97 96 94 90 95 97 88 86 88 89 90 92 94 90 88 88 93 93 93 94 93 94 95 95 95 97 98 99 100 100 100 100 100
98 98 98 98 96 96 94 95 93 93 94 92 93 94 90 82 93 95 93 93 91 93 95 92 90 89 93 93 93 94 95 95 95 95 95 96 98 99 100 99 100 100 100 100
97 97 96 93 95 96 96 94 94 94 90 96 96 97 97 96 94 95 94 93 93 93 94 94 92 92 93 93 93 93 94 94 94 95 95 98 99 99 99 100 100 99 100 100
99 99 98 97 96 96 97 96 97 98 96 96 97 98 97 97 97 95 95 96 95 95 94 94 92 92 93 93 93 94 95 96 95 97 98 99 99 99 99 99 99 99 100 100

GFSNGP_sfc_rhum_165.txt.gz
RH
86 94 85 79 77 64 64 55 63 68 50 40 45 52 58 61 66 69 74 76 79 84 85 81 69 59 54 57 60 62 66 70 84 87 85 85 86 87 87 87 87 88 88 87
88 68 76 90 80 69 65 59 54 50 45 40 44 54 66 64 64 67 71 71 72 74 74 72 61 53 50 56 59 59 58 60 68 73 64 71 69 69 65 82 86 86 89 88
86 57 63 86 88 79 65 52 46 52 40 45 48 52 55 61 62 61 67 74 76 77 74 69 65 57 57 58 60 60 56 56 67 78 65 61 57 55 58 58 69 77 82 77
90 78 96 56 50 54 60 58 42 35 35 39 37 40 52 57 58 63 68 73 80 91 80 71 66 59 54 61 65 67 61 60 65 72 64 61 59 57 57 50 49 54 66 64
92 76 65 57 48 50 61 54 54 44 36 35 60 58 59 67 60 61 64 69 72 76 84 74 71 61 59 68 69 67 71 69 61 64 63 64 65 62 56 52 53 65 62 71
96 91 79 47 39 35 37 52 35 34 37 53 60 60 66 70 65 68 66 68 74 73 71 68 67 62 63 74 81 74 68 77 83 64 69 70 74 77 65 58 65 59 67 78
95 93 73 50 41 36 53 46 39 39 46 63 60 52 54 64 70 72 70 74 74 72 70 67 61 58 62 67 80 68 59 62 67 75 82 84 85 77 79 75 63 73 78 84
93 96 88 51 49 58 52 46 49 54 61 67 62 67 69 70 75 73 75 76 69 70 68 65 58 55 55 56 54 57 58 60 61 63 59 64 80 83 77 80 79 78 75 78
80 79 66 62 59 51 51 44 48 52 58 62 68 77 81 85 78 72 71 68 64 62 66 64 57 51 52 51 56 58 59 60 60 59 59 63 70 78 75 61 60 64 66 77
75 68 66 62 61 60 55 51 50 54 59 60 62 68 73 73 71 70 66 64 60 63 64 65 58 53 49 55 56 57 54 57 56 55 57 57 58 59 58 55 57 54 65 75
73 65 64 64 64 58 55 52 54 55 59 58 57 68 68 68 67 62 65 63 61 62 61 60 57 55 53 52 54 50 52 55 51 51 50 49 46 47 48 60 48 57 69 74
73 61 62 61 63 66 64 58 57 60 64 70 63 62 69 71 67 64 65 62 61 60 57 55 56 56 55 53 49 49 51 56 56 50 45 45 48 56 63 67 64 65 70 74
51 50 64 70 61 51 63 59 62 65 61 63 65 66 70 72 69 69 63 62 61 60 57 58 56 56 56 56 51 49 47 50 58 56 49 56 62 63 74 76 71 65 65 78
50 56 57 51 48 42 53 55 61 62 62 63 61 69 74 72 71 69 66 62 58 57 59 62 62 73 76 75 70 73 70 67 70 71 70 74 78 81 82 84 88 90 76 85
53 52 51 49 48 45 45 46 48 47 51 58 68 74 76 77 73 72 69 64 60 62 69 72 76 82 74 72 74 76 66 75 82 82 82 81 84 86 85 84 85 86 86 87
48 50 52 60 56 55 55 56 58 57 59 60 64 71 75 72 70 70 66 63 63 67 66 74 77 83 76 73 77 75 76 79 80 80 83 82 83 83 84 86 85 83 82 82
61 59 57 59 61 61 59 60 61 63 66 72 75 79 85 90 88 86 82 78 78 80 80 81 84 86 82 81 80 77 78 77 74 73 75 76 80 82 83 86 85 85 86 88
62 66 75 80 86 90 88 86 82 76 74 69 84 93 95 92 87 87 87 88 89 88 85 84 87 86 84 84 77 73 72 72 71 75 76 82 79 77 82 82 81 83 83 82
84 88 88 88 88 91 96 95 92 89 89 88 93 93 91 90 91 88 88 84 85 87 90 87 84 78 76 80 68 65 69 73 73 73 75 83 84 77 82 84 83 84 79 82
81 81 85 90 91 96 97 98 99 98 94 94 93 96 96 94 91 90 86 84 77 71 86 79 68 65 70 76 75 66 74 80 74 80 85 80 86 89 86 82 80 85 89 88
90 88 98 96 98 97 97 98 99 98 95 96 94 95 95 94 91 88 88 76 92 88 78 78 66 68 67 73 66 78 85 87 87 86 86 88 90 84 87 87 87 90 91 90
96 98 96 96 97 98 97 98 95 96 95 96 96 94 94 93 91 88 86 77 89 86 75 69 67 73 73 78 70 86 82 82 84 84 88 89 88 89 89 90 90 92 91 91
94 95 96 96 98 98 94 95 97 95 96 95 95 93 88 82 81 91 95 93 90 82 74 78 84 90 86 89 88 87 86 87 88 86 87 88 88 88 88 90 90 91 92 91
95 96 96 95 95 94 94 94 91 94 96 95 96 95 92 93 95 90 90 91 88 86 88 92 91 90 87 92 92 91 89 89 89 88 86 86 89 90 89 91 91 91 91 92
96 96 95 95 94 93 90 89 87 87 88 87 92 92 92 86 87 90 91 90 90 88 90 91 89 88 91 92 93 92 91 89 89 89 88 89 90 90 91 90 91 91 91 89
91 92 91 94 94 91 89 88 87 85 84 91 90 94 94 91 89 89 90 90 88 89 91 94 91 91 90 89 89 89 89 86 88 87 88 88 89 89 91 90 91 91 89 89
93 95 92 90 92 92 92 91 92 91 90 93 92 93 92 93 93 90 93 93 92 92 93 92 91 88 88 88 88 88 88 88 87 86 88 89 89 90 90 90 90 90 90 91